[[{"header":{"parameterUnit":"m.s-1","parameterCategory":1,"la1":30.2991,"la2":30.254,"lo1":-89.0895,"lo2":-89.0444,"dy":0.0017,"dx":0.0017,"nx":28,"ny":28,"refTime":"2024-10-22T03:00:00:Z","depth":0,"parameterNumber":2,"parameterNumberName":"U-component_of_WINDS"},"data":[0,0,0,0,0,0,0,0,0,0,0,0,0,0,0,0,0,0,0,0,0,0,0,0,0,0,0,0,0,0,0,0,0,0,0,0,0,0,0,0,0,0,0,0,0,0,0,0,0,0,0,0,0,0,0,0,0,0,-0.6944,-0.6944,0,-0.7,-0.7001,-0.7002,-0.6989,-0.6988,-0.6987,-0.6986,-0.7045,-0.7047,-0.705,0,0,0,0,0,0,0,0,0,0,0,0,0,-0.6824,-0.6826,-0.6943,-0.6944,-0.6945,-0.7,-0.7001,-0.7002,-0.6989,-0.6988,-0.6987,-0.6986,-0.7044,-0.7047,-0.705,0,0,0,0,0,0,0,0,0,0,0,0,0,-0.6878,-0.6827,-0.6943,-0.6945,-0.6946,-0.7,-0.7001,-0.7002,-0.699,-0.6988,-0.6986,-0.6985,-0.7043,-0.7047,-0.7051,-0.7106,0,0,-0.7062,-0.7064,0,0,0,0,0,0,0,0,-0.6875,-0.6882,-0.6944,-0.6945,-0.6946,-0.6986,-0.698,-0.7037,-0.699,-0.6973,-0.6986,-0.6984,-0.7027,-0.7032,-0.7046,-0.7109,-0.7111,-0.7063,-0.7065,-0.7067,-0.7068,0,0,0,0,0,0,0,-0.6871,-0.688,-0.6966,-0.6945,-0.6946,-0.6943,-0.6949,-0.6991,-0.7008,-0.6974,-0.6974,-0.6981,-0.7027,-0.7042,-0.7047,-0.7112,-0.7062,-0.7066,-0.7068,-0.707,-0.7223,-0.7224,0,0,0,0,0,0,-0.6867,-0.6877,-0.6964,-0.6968,-0.6906,-0.6947,-0.6953,-0.6975,-0.7008,-0.7011,-0.6982,-0.698,-0.7036,-0.7043,-0.7049,-0.7116,-0.7067,-0.707,-0.7072,-0.7221,-0.7223,-0.7225,0,0,0,0,0,0,-0.6864,-0.6874,-0.6962,-0.6922,-0.6933,-0.6951,-0.6975,-0.6977,-0.6992,-0.7013,-0.7016,-0.6995,-0.7035,-0.7044,-0.7092,-0.7118,-0.7072,-0.7075,-0.7219,-0.7221,-0.7224,-0.725,0,0,0,0,0,0,-0.6861,-0.6874,-0.6895,-0.6923,-0.6935,-0.7004,-0.6976,-0.6979,-0.6999,-0.6997,-0.7026,-0.7029,-0.7035,-0.7086,-0.7096,-0.7122,-0.7078,-0.7217,-0.722,-0.7223,-0.7247,-0.7254,-0.7259,0,0,0,0,0,-0.6856,-0.6901,-0.6896,-0.6907,-0.6962,-0.7005,-0.7012,-0.7018,-0.7001,-0.7023,-0.7036,-0.7028,-0.7113,-0.7091,-0.7102,-0.713,-0.7215,-0.7219,-0.7223,-0.7245,-0.7252,-0.7259,0,0,0,0,0,0,-0.6877,-0.6904,-0.69,-0.6954,-0.6977,-0.7003,-0.7031,-0.7026,-0.7055,-0.7052,-0.7057,-0.7064,-0.7112,-0.7126,-0.7101,-0.7185,-0.7162,-0.7168,-0.7175,-0.7182,-0.7188,-0.7184,-0.7082,0,0,0,0,0,-0.6887,-0.692,-0.6942,-0.6988,-0.7,-0.7013,-0.7032,-0.7034,-0.7059,-0.7068,-0.7085,-0.7109,-0.7141,-0.7162,-0.7193,-0.7249,-0.7255,-0.7273,-0.7279,-0.7284,-0.7289,-0.7319,-0.7327,-0.7238,-0.7238,-0.7238,0,0,-0.691,-0.6929,-0.6949,-0.6993,-0.7011,-0.7044,-0.7022,-0.7058,-0.7083,-0.7074,-0.712,-0.7133,-0.716,-0.7212,-0.7236,-0.7225,-0.7315,-0.7289,-0.7292,-0.7295,-0.7324,-0.7332,-0.734,-0.7241,-0.724,-0.724,0,0,-0.6968,-0.6986,-0.7026,-0.7044,-0.7072,-0.708,-0.709,-0.7116,-0.7124,-0.717,-0.7164,-0.7193,-0.7248,-0.7268,-0.7285,-0.7348,-0.7342,-0.7358,-0.7389,-0.7418,-0.7425,-0.7431,-0.7454,-0.7462,-0.7364,-0.7364,-0.7364,0,-0.6993,-0.7043,-0.7047,-0.7084,-0.7103,-0.7095,-0.7136,-0.7153,-0.7189,-0.7203,-0.719,-0.7258,-0.7276,-0.7332,-0.7347,-0.7361,-0.7372,-0.7355,-0.7424,-0.743,-0.7436,-0.7458,-0.7466,-0.7365,-0.7365,-0.7365,-0.7365,0,-0.7072,-0.7107,-0.7136,-0.717,-0.7192,-0.7231,-0.724,-0.7262,-0.7261,-0.7271,-0.7318,-0.7338,-0.7373,-0.7386,-0.7386,-0.7442,-0.7434,-0.7422,-0.7399,-0.7446,-0.7467,-0.7475,-0.7368,-0.7367,-0.7367,-0.7366,0,0,-0.7146,-0.7181,-0.7192,-0.7207,-0.7236,-0.7263,-0.73,-0.7333,-0.7352,-0.7377,-0.7408,-0.7454,-0.7443,-0.7463,-0.7465,-0.749,-0.7539,-0.7475,-0.7476,-0.7486,-0.7601,-0.761,-0.7619,-0.7534,-0.7536,-0.7537,-0.7598,0,-0.7207,-0.7273,-0.7277,-0.7337,-0.7369,-0.7362,-0.7394,-0.7415,-0.7425,-0.7453,-0.7464,-0.7496,-0.7479,-0.7491,-0.7515,-0.7528,-0.7562,-0.7523,-0.7564,-0.7565,-0.7558,-0.763,-0.764,-0.7696,-0.7606,-0.7608,-0.7609,0,-0.7288,-0.7314,-0.7377,-0.7401,-0.7414,-0.7444,-0.7474,-0.7501,-0.7524,-0.7529,-0.755,-0.7548,-0.7586,-0.7561,-0.7613,-0.7587,-0.7603,-0.7612,-0.7614,-0.7618,-0.759,-0.7636,-0.7715,-0.7723,-0.7621,-0.762,-0.7619,0,-0.7335,-0.7387,-0.7431,-0.7444,-0.7473,-0.7493,-0.7506,-0.7528,-0.7547,-0.7573,-0.7586,-0.7616,-0.7633,-0.7656,-0.7662,-0.7643,-0.7714,-0.769,-0.7719,-0.7719,-0.7735,-0.7735,-0.7818,-0.7745,-0.7745,-0.7745,-0.7745,0,-0.7403,-0.7442,-0.7453,-0.748,-0.7523,-0.7526,-0.7569,-0.758,-0.76,-0.7629,-0.7624,-0.7651,-0.7657,-0.7686,-0.7691,-0.7733,-0.774,-0.7745,-0.7746,-0.7746,-0.7746,-0.7758,-0.7754,-0.7747,-0.7747,-0.7747,-0.7746,0,-0.7464,-0.7473,-0.752,-0.7543,-0.755,-0.758,-0.76,-0.7626,-0.7634,-0.767,-0.7679,-0.7692,-0.7725,-0.7734,-0.7773,-0.7776,-0.7826,-0.7823,-0.7818,-0.7818,-0.7848,-0.7845,-0.7942,-0.7955,-0.7874,-0.7875,-0.7875,0,-0.7508,-0.7537,-0.7563,-0.7581,-0.7595,-0.7626,-0.7645,-0.7649,-0.767,-0.7698,-0.772,-0.7752,-0.7779,-0.7832,-0.7845,-0.7875,-0.7873,-0.7904,-0.7877,-0.7876,-0.7873,-0.7871,-0.7874,-0.791,-0.7911,-0.7911,-0.7912,0,-0.7583,-0.7586,-0.7614,-0.7643,-0.7666,-0.7689,-0.7712,-0.7727,-0.7734,-0.7757,-0.7791,-0.7811,-0.7851,-0.7883,-0.7913,-0.7926,-0.792,-0.792,-0.7929,-0.7929,-0.7925,-0.7928,-0.7833,-0.7918,-0.7918,-0.7917,-0.7917,-0.7917,-0.7637,-0.7662,-0.7684,-0.7715,-0.7732,-0.7753,-0.7778,-0.7789,-0.7817,-0.7849,-0.785,-0.7886,-0.7908,-0.7947,-0.7962,-0.799,-0.798,-0.7992,-0.7996,-0.7999,-0.8001,-0.792,-0.7995,-0.7995,-0.7995,-0.7995,-0.7995,0,-0.7712,-0.7725,-0.7754,-0.7785,-0.7809,-0.7801,-0.7825,-0.7846,-0.7878,-0.7898,-0.7923,-0.7961,-0.7992,-0.8007,-0.8037,-0.8057,-0.8055,-0.8065,-0.8063,-0.8066,-0.8008,-0.7998,-0.8065,-0.8065,-0.8065,-0.8065,-0.8065,-0.8065,-0.7755,-0.7797,-0.7802,-0.7853,-0.7866,-0.7901,-0.7915,-0.7934,-0.795,-0.7993,-0.8018,-0.8027,-0.8045,-0.8076,-0.8104,-0.8107,-0.8119,-0.813,-0.8132,-0.8078,-0.8071,-0.8064,-0.8054,-0.8132,-0.8132,-0.8188,-0.8188,-0.8188]},{"header":{"parameterUnit":"m.s-1","parameterCategory":1,"la1":30.2991,"la2":30.254,"lo1":-89.0895,"lo2":-89.0444,"dy":0.0017,"dx":0.0017,"nx":28,"ny":28,"refTime":"2024-10-22T03:00:00:Z","depth":0,"parameterNumber":3,"parameterNumberName":"V-component_of_WINDS"},"data":[0,0,0,0,0,0,0,0,0,0,0,0,0,0,0,0,0,0,0,0,0,0,0,0,0,0,0,0,0,0,0,0,0,0,0,0,0,0,0,0,0,0,0,0,0,0,0,0,0,0,0,0,0,0,0,0,0,0,-2.3947,-2.3948,0,-2.402,-2.4021,-2.4022,-2.3998,-2.3997,-2.3995,-2.3994,-2.4066,-2.4069,-2.4072,0,0,0,0,0,0,0,0,0,0,0,0,0,-2.3784,-2.3787,-2.3947,-2.3948,-2.3949,-2.402,-2.4021,-2.4022,-2.3999,-2.3997,-2.3995,-2.3993,-2.4064,-2.4068,-2.4072,0,0,0,0,0,0,0,0,0,0,0,0,0,-2.3856,-2.3788,-2.3947,-2.3946,-2.3947,-2.402,-2.4021,-2.4022,-2.3999,-2.3997,-2.3994,-2.3992,-2.4063,-2.4068,-2.4073,-2.4151,0,0,-2.4088,-2.4091,0,0,0,0,0,0,0,0,-2.3852,-2.3862,-2.3945,-2.3946,-2.3947,-2.3998,-2.399,-2.4065,-2.4,-2.3979,-2.3994,-2.3991,-2.4045,-2.4051,-2.407,-2.4154,-2.4157,-2.4089,-2.4092,-2.4094,-2.4095,0,0,0,0,0,0,0,-2.3847,-2.3858,-2.3976,-2.3946,-2.3947,-2.3941,-2.3948,-2.4004,-2.4024,-2.3981,-2.3979,-2.3988,-2.4045,-2.4065,-2.4071,-2.4158,-2.4089,-2.4093,-2.4096,-2.4098,-2.431,-2.4313,0,0,0,0,0,0,-2.3842,-2.3854,-2.3974,-2.3978,-2.3893,-2.3946,-2.3954,-2.3984,-2.4023,-2.4027,-2.399,-2.3987,-2.4058,-2.4066,-2.4074,-2.4168,-2.4094,-2.4099,-2.4102,-2.4308,-2.4311,-2.4314,0,0,0,0,0,0,-2.3838,-2.3852,-2.3971,-2.3916,-2.393,-2.3951,-2.3984,-2.3987,-2.4007,-2.4031,-2.4034,-2.4008,-2.4056,-2.4067,-2.4132,-2.417,-2.4101,-2.4106,-2.4305,-2.4309,-2.4312,-2.4357,0,0,0,0,0,0,-2.3834,-2.3851,-2.3882,-2.3917,-2.3934,-2.4029,-2.3987,-2.399,-2.4016,-2.4012,-2.4048,-2.4051,-2.4055,-2.4125,-2.4137,-2.4176,-2.411,-2.4301,-2.4306,-2.4311,-2.4352,-2.4362,-2.437,0,0,0,0,0,-2.3828,-2.3891,-2.3884,-2.3898,-2.3972,-2.4031,-2.4041,-2.4045,-2.4019,-2.405,-2.4065,-2.405,-2.4164,-2.4132,-2.4145,-2.4186,-2.4299,-2.4305,-2.4311,-2.4348,-2.436,-2.437,0,0,0,0,0,0,-2.3858,-2.3895,-2.3888,-2.3964,-2.3995,-2.4027,-2.4066,-2.4057,-2.4095,-2.409,-2.4092,-2.41,-2.4167,-2.4183,-2.4147,-2.4264,-2.4227,-2.4236,-2.4251,-2.4263,-2.4271,-2.4266,-2.4114,0,0,0,0,0,-2.3874,-2.392,-2.3949,-2.4014,-2.403,-2.4045,-2.4071,-2.4071,-2.4103,-2.4115,-2.4135,-2.4166,-2.4208,-2.4236,-2.4276,-2.4354,-2.4361,-2.4388,-2.4397,-2.4405,-2.4413,-2.4455,-2.4467,-2.4333,-2.4333,-2.4333,0,0,-2.3907,-2.3933,-2.3961,-2.402,-2.4044,-2.4091,-2.4056,-2.4107,-2.4141,-2.4123,-2.4186,-2.4202,-2.4236,-2.4308,-2.434,-2.4323,-2.4451,-2.4412,-2.4418,-2.4422,-2.4462,-2.4475,-2.4486,-2.4337,-2.4336,-2.4335,0,0,-2.3991,-2.4015,-2.4072,-2.4097,-2.4134,-2.4144,-2.4157,-2.4191,-2.4201,-2.4265,-2.4253,-2.4293,-2.4366,-2.4391,-2.4413,-2.4506,-2.4494,-2.4519,-2.4566,-2.4608,-2.4618,-2.4628,-2.4661,-2.4673,-2.4527,-2.4527,-2.4527,0,-2.4027,-2.4098,-2.4101,-2.4154,-2.418,-2.4167,-2.4224,-2.4247,-2.4295,-2.4313,-2.4293,-2.4385,-2.4406,-2.4484,-2.4507,-2.4525,-2.4541,-2.4515,-2.4617,-2.4626,-2.4635,-2.4667,-2.468,-2.453,-2.4529,-2.4529,-2.4529,0,-2.414,-2.4189,-2.423,-2.4279,-2.4309,-2.4363,-2.4375,-2.4405,-2.4403,-2.4415,-2.448,-2.4505,-2.4551,-2.4569,-2.4567,-2.4647,-2.4635,-2.4616,-2.458,-2.4651,-2.4681,-2.4693,-2.4534,-2.4533,-2.4532,-2.4531,0,0,-2.4246,-2.4296,-2.4311,-2.4333,-2.4373,-2.441,-2.4463,-2.4509,-2.4535,-2.4568,-2.4613,-2.4675,-2.4658,-2.4683,-2.4684,-2.472,-2.4793,-2.4696,-2.4697,-2.4714,-2.4882,-2.4897,-2.4911,-2.4785,-2.4787,-2.4789,-2.488,0,-2.4333,-2.4429,-2.4434,-2.452,-2.4565,-2.4553,-2.4599,-2.4628,-2.4641,-2.468,-2.4693,-2.4738,-2.4711,-2.4726,-2.4761,-2.4776,-2.4827,-2.477,-2.4826,-2.4828,-2.4818,-2.4927,-2.4943,-2.5028,-2.4891,-2.4893,-2.4895,0,-2.4449,-2.4487,-2.4578,-2.4612,-2.4631,-2.4673,-2.4716,-2.4754,-2.4786,-2.4792,-2.4821,-2.4816,-2.4869,-2.4831,-2.4905,-2.4866,-2.4889,-2.49,-2.4903,-2.4909,-2.4866,-2.4936,-2.5055,-2.5068,-2.4913,-2.4912,-2.4911,0,-2.4517,-2.4591,-2.4656,-2.4675,-2.4716,-2.4745,-2.4764,-2.4794,-2.4821,-2.4858,-2.4875,-2.4917,-2.494,-2.4972,-2.4978,-2.495,-2.5052,-2.5014,-2.5059,-2.5059,-2.5081,-2.508,-2.5206,-2.5095,-2.5095,-2.5095,-2.5094,0,-2.4615,-2.4671,-2.4687,-2.4727,-2.479,-2.4794,-2.4856,-2.4871,-2.4898,-2.494,-2.4931,-2.497,-2.4976,-2.5016,-2.5021,-2.5082,-2.5092,-2.5098,-2.5099,-2.51,-2.5099,-2.5115,-2.511,-2.5098,-2.5097,-2.5097,-2.5096,0,-2.4703,-2.4716,-2.4785,-2.4819,-2.4828,-2.4873,-2.4901,-2.4939,-2.495,-2.5003,-2.5015,-2.5033,-2.508,-2.5089,-2.5144,-2.5147,-2.522,-2.5214,-2.5209,-2.5209,-2.5253,-2.5249,-2.5394,-2.5414,-2.529,-2.5291,-2.5292,0,-2.4765,-2.4808,-2.4847,-2.4875,-2.4895,-2.494,-2.4968,-2.4974,-2.5003,-2.5044,-2.5076,-2.5122,-2.516,-2.5235,-2.5252,-2.5294,-2.529,-2.5338,-2.5296,-2.5296,-2.5291,-2.5289,-2.5294,-2.5346,-2.5347,-2.5348,-2.5349,0,-2.4874,-2.4878,-2.492,-2.4964,-2.4998,-2.5033,-2.5066,-2.5089,-2.5099,-2.5132,-2.5181,-2.521,-2.5267,-2.5313,-2.5355,-2.5372,-2.5363,-2.5362,-2.5375,-2.5376,-2.5372,-2.5376,-2.5232,-2.5359,-2.5358,-2.5357,-2.5357,-2.5356,-2.4951,-2.4989,-2.5023,-2.5069,-2.5095,-2.5126,-2.5163,-2.518,-2.5221,-2.5269,-2.5269,-2.5322,-2.5353,-2.5409,-2.5429,-2.547,-2.5454,-2.5472,-2.5477,-2.5482,-2.5486,-2.5365,-2.5477,-2.5477,-2.5476,-2.5476,-2.5476,0,-2.506,-2.5081,-2.5124,-2.5171,-2.5208,-2.5196,-2.5232,-2.5263,-2.5311,-2.5341,-2.5378,-2.5434,-2.5479,-2.5499,-2.5543,-2.5572,-2.5568,-2.5583,-2.5581,-2.5585,-2.5497,-2.5482,-2.5585,-2.5585,-2.5585,-2.5585,-2.5585,-2.5585,-2.5122,-2.5186,-2.5194,-2.5271,-2.5291,-2.5344,-2.5366,-2.5394,-2.5418,-2.5481,-2.5519,-2.5532,-2.5558,-2.5604,-2.5644,-2.5649,-2.5665,-2.5683,-2.5685,-2.5603,-2.5592,-2.5581,-2.5567,-2.5686,-2.5686,-2.577,-2.5771,-2.5772]}]]